www.pogodaiklimat.ru

Погода и климат >> Архив погоды >> Финляндия >> Муонио Аламуонио


ПОГОДА в Муонио Аламуонио

  • Прогноз погоды в Муонио Аламуонио
  • Монитор погоды в Муонио Аламуонио

АРХИВ ПОГОДЫ в Муонио Аламуонио

Время (UTC), дата Ветер
(напр.,м/с)
 
Видим.   Явления Облачность Т
(С)
Тd
(С)
f
(%)
Тe
(С)
Тes
(С)
Комфортность P
(гПа)
Po
(гПа)
Тmin
(С)
Tmax
(С)
R
(мм)
R24
(мм)
S
(см)
04 12.02 ЮВ 1 7000 м слаб. ливневой снег ясно -23.0 -25.6 79 -26 -26 999.1 967.2
05 12.02 Ю 1 45 км в посл. час снег ясно -23.2 -25.8 79 -27 -27 999.3 967.3
06 12.02 В 1 45 км слаб. ливневой снег ясно -24.1 -26.8 78 -28 -28 999.3 967.2 -24.1 -10.6 52
07 12.02 ЮВ 1 26 км ясно -23.9 -26.6 78 -27 -27 999.6 967.5
08 12.02 ЮВ 1 19 км слаб. ливневой снег ясно -22.7 -25.1 81 -26 -26 999.7 967.8
09 12.02 ЮВ 1 25 км в посл. час зёрна ясно -19.9 -22.5 80 -23 -23 999.5 967.9
10 12.02 ЮВ 1 45 км ясно -17.2 -19.9 79 -20 -19 999.1 967.9
11 12.02 Ю 2 35 км ясно -11.7 -13.0 90 -16 -16 998.5 968.0
12 12.02 штиль 0 40 км ясно -10.9 -14.0 78 -11 -11 999.0 968.5
13 12.02 штиль 0 40 км ясно -14.1 -17.3 77 -14 -14 999.8 968.9
14 12.02 штиль 0 30 км 6/6
[]
-16.3 -18.5 83 -16 -16 1000.6 969.5
15 12.02 С 1 7000 м слаб. ливневой снег ясно -17.8 -19.9 84 -21 -21 1001.5 970.2
16 12.02 штиль 0 15 км в посл. час снег 3/3 50 м
[]
-20.0 -22.5 80 -20 -20 1002.1 970.5
17 12.02 С 1 22 км слаб. ливневой снег ясно -22.1 -24.8 79 -25 -25 1002.8 970.9
18 12.02 С 1 35 км ясно -22.8 -25.3 80 -26 -26 1003.0 971.0 -24.6 -9.9
19 12.02 СЗ 1 27 км в посл. час снег 1/0
[]
-23.4 -26.1 78 -27 -27 1003.4 971.3
20 12.02 штиль 0 50 км 9/9 1000 м
[]
-22.0 -24.3 82 -22 -22 1003.4 971.4
21 12.02 штиль 0 30 км 10/10 1000 м
[]
-18.3 -20.5 83 -18 -18 1003.3 971.8
22 12.02 В 1 40 км 10/10 1000 м
[]
-16.4 -18.4 84 -19 -19 1003.2 971.9
23 12.02 С 1 8000 м слаб. ливневой снег 10/10 300 м
[]
-15.3 -17.4 84 -18 -18 1002.8 971.7
00 13.02 СЗ 1 40 км слаб. ливневой снег 9/9 1500 м
[]
-16.2 -18.4 83 -19 -19 1002.8 971.6
01 13.02 СЗ 1 50 км 6/6 100 м
[]
-17.5 -19.7 83 -20 -20 1002.7 971.4
02 13.02 штиль 0 45 км 10/10 100 м
[]
-17.2 -19.2 84 -17 -17 1002.8 971.5
03 13.02 штиль 0 1300 м слаб. ливневой снег 10/10 50 м
[]
-15.7 -16.9 90 -16 -16 1002.5 971.4
04 13.02 З 1 400 м слаб. ливневой снег 10/10 50 м
[]
-15.4 -16.9 88 -18 -18 1002.7 971.6
05 13.02 штиль 0 2700 м слаб. ливневой снег 10/10 100 м
[]
-14.1 -15.8 87 -14 -14 1002.5 971.5
06 13.02 штиль 0 4200 м слаб. снег 10/10 100 м
[]
-13.2 -14.9 87 -13 -13 1002.5 971.7 -24.2 -13.2 52
07 13.02 СЗ 1 6000 м снежные кристаллы 10/10 50 м
[]
-12.5 -14.2 87 -15 -15 1002.5 971.7
08 13.02 В 1 19 км слаб. ливневой снег 9/9 300 м
[]
-11.5 -13.0 89 -14 -14 1002.3 971.7
09 13.02 В 1 9000 м дымка 10/10 300 м
[]
-8.8 -10.3 89 -11 -11 1002.6 972.3
10 13.02 ЮВ 2 7000 м слаб. ливневой снег 10/10 100 м
[]
-6.3 -7.2 93 -11 -11 1002.7 972.7
11 13.02 Ю 2 14 км слаб. снег 10/10 200 м
[]
-5.5 -6.7 91 -10 -10 1002.9 973.0
12 13.02 В 3 35 км в посл. час зёрна 10/10 300 м
[]
-5.5 -6.8 91 -11 -11 1003.4 973.5
13 13.02 В 2 50 км 10/10 300 м
[]
-5.7 -6.9 91 -10 -10 1003.7 973.7
14 13.02 В 3 30 км 10/10 300 м
[]
-6.1 -7.4 90 -12 -12 1004.5 974.4
15 13.02 В 3 5000 м дымка 10/10 100 м
[]
-6.4 -7.4 93 -12 -12 1005.4 975.3
16 13.02 В 2 13 км 10/10 100 м
[]
-6.5 -7.5 93 -11 -11 1006.0 975.8
17 13.02 ЮВ 1 30 км 10/10 200 м
[]
-6.8 -7.9 92 -9 -9 1007.2 976.9
18 13.02 ЮВ 1 4300 м слаб. снег 10/10 100 м
[]
-6.7 -7.5 94 -9 -9 1007.9 977.7 -13.2 -5.0
19 13.02 Ю 1 6000 м слаб. снег 10/10 100 м
[]
-6.9 -7.9 93 -9 -9 1008.6 978.3
20 13.02 ЮЗ 2 7000 м слаб. снег 10/10 300 м
[]
-6.9 -7.9 93 -11 -11 1009.3 979.0
21 13.02 Ю 1 3900 м слаб. снег 10/10 300 м
[]
-7.3 -8.5 91 -10 -10 1009.8 979.4
22 13.02 Ю 2 7000 м слаб. снег 10/5 1500 м
[]
-7.7 -8.9 91 -12 -12 1010.1 979.6
23 13.02 Ю 2 45 км в посл. час снег 9/9 1000 м
[]
-8.1 -9.4 90 -13 -13 1010.0 979.5
00 14.02 Ю 2 35 км 9/9 1500 м
[]
-9.6 -10.9 90 -14 -14 1010.1 979.5
01 14.02 Ю 2 50 км 9/9 200 м
[]
-10.1 -11.5 89 -15 -15 1010.7 980.0
02 14.02 Ю 1 18 км 9/9 200 м
[]
-10.8 -12.1 90 -13 -13 1010.6 979.8
03 14.02 Ю 1 23 км слаб. ливневой снег 1/1 100 м
[]
-12.5 -13.8 90 -15 -15 1011.0 980.0
04 14.02 ЮВ 2 21 км слаб. ливневой снег ясно -12.9 -14.2 90 -18 -18 1010.0 978.9
05 14.02 Ю 1 1800 м слаб. снег 5/5 100 м
[]
-13.6 -15.1 88 -16 -16 1010.0 978.9
06 14.02 ЮВ 3 26 км слаб. снег 9/0
[]
-12.1 -13.5 89 -18 -18 1008.9 978.0 -14.8 -6.6 0.2 52
07 14.02 Ю 4 20 км слаб. снег 8/8
[]
-11.5 -13.1 88 -19 -19 1007.6 976.8
08 14.02 Ю 4 35 км снежные кристаллы 9/5 600 м
[]
-10.4 -12.0 88 -17 -17 1005.2 974.6
09 14.02 ЮВ 5 6000 м слаб. снег 9/9 300 м
[]
-8.9 -10.7 87 -17 -17 1001.8 971.5
10 14.02 Ю 5 1300 м слаб. снег 10/10 600 м
[]
-7.8 -9.6 87 -15 -15 999.8 969.6
12 14.02 Ю 7 500 м снег 10/10 300 м
[]
-7.1 -8.8 88 -16 -16 994.7 964.8
13 14.02 Ю 5 7000 м слаб. ледяной дождь 10/10 600 м
[]
-7.6 -9.7 85 -15 -15 993.0 963.1
14 14.02 Ю 5 6000 м снежные кристаллы 10/10 200 м
[]
-7.9 -9.3 90 -16 -16 991.6 961.8
15 14.02 Ю 5 7000 м снежные кристаллы 10/10 100 м
[]
-7.0 -7.9 93 -15 -15 989.1 959.4
16 14.02 Ю 6 11 км снежные кристаллы 10/10 100 м
[]
-5.6 -6.3 95 -14 -14 987.2 957.7
17 14.02 Ю 6 16 км слаб. снег 10/10 100 м
[]
-3.5 -4.1 96 -11 -11 986.0 956.7
18 14.02 Ю 4 40 км 9/6 100 м
[]
-2.4 -3.0 96 -9 -9 984.4 955.3 -12.1 -2.4 3
19 14.02 ЮЗ 5 40 км 9/0
[]
-0.9 -2.6 88 -7 -7 983.6 954.7
20 14.02 ЮЗ 6 50 км 3/0
[]
+1.1 -1.9 80 -5 -5 983.2 954.5
21 14.02 З 8 30 км ясно +1.7 -2.4 74 -5 -5 983.1 954.5
22 14.02 З 10 13 км слаб. ливневой дождь 9/0
[]
+1.6 -2.3 75 -6 -6 983.7 955.0
23 14.02 З 7 50 км в посл. час снег ясно +1.6 -2.4 75 -5 -5 985.2 956.5
00 15.02 З 5 50 км 9/9 2000 м
[]
+1.6 -2.6 74 -4 -4 986.7 957.9
01 15.02 З 4 50 км 9/8
[]
+1.2 -2.9 74 -4 -4 987.4 958.6
02 15.02 З 2 50 км 8/0
[]
-0.6 -3.7 80 -4 -4 988.2 959.1
03 15.02 З 3 50 км ясно -0.5 -3.6 80 -5 -5 988.6 959.6
04 15.02 З 4 50 км 3/0
[]
0.0 -3.6 77 -5 -5 989.2 960.3
05 15.02 З 2 50 км 5/5 1000 м
[]
-1.0 -3.8 81 -5 -5 990.2 961.1
06 15.02 З 3 50 км ясно +0.8 -2.2 80 -4 -4 991.6 962.7 -3.1 +1.9 57
07 15.02 З 4 50 км 5/0
[]
+1.5 -2.0 78 -3 -3 993.2 964.3
08 15.02 СЗ 4 50 км 9/1 1000 м
[]
+1.9 -1.8 76 -3 -3 995.4 966.4
09 15.02 СЗ 2 50 км 9/9
[]
+0.9 -2.3 79 -2 -2 997.8 968.7
10 15.02 З 2 50 км 9/9
[]
+0.9 -2.5 78 -2 -2 998.9 969.7
11 15.02 СЗ 2 50 км 10/10 1000 м
[]
+1.5 -2.4 75 -2 -2 999.8 970.7
12 15.02 СЗ 2 50 км 9/9 600 м
[]
+1.9 -2.4 73 -1 -1 1000.7 971.6
13 15.02 З 4 50 км 5/5 600 м
[]
+1.7 -2.9 71 -3 -3 1001.6 972.5
14 15.02 СЗ 4 50 км 8/0
[]
+0.5 -4.2 71 -5 -5 1002.7 973.4
15 15.02 СЗ 3 50 км ясно -1.9 -6.4 71 -7 -7 1004.3 974.7
16 15.02 СЗ 2 50 км 5/0
[]
-2.9 -6.6 76 -7 -7 1005.2 975.5
17 15.02 З 1 50 км 3/0
[]
-7.1 -8.5 90 -10 -10 1006.2 976.0
18 15.02 З 2 18 км 9/8
[]
-6.9 -7.6 95 -11 -11 1006.7 976.4 -9.0 +2.2
19 15.02 В 1 15 км 1/1
[]
-10.7 -12.2 89 -13 -13 1007.5 976.8
20 15.02 ЮВ 1 40 км 9/9
[]
-10.9 -12.4 89 -13 -13 1007.4 976.7
21 15.02 В 1 50 км 6/6
[]
-10.4 -11.7 90 -13 -13 1006.9 976.3
22 15.02 ЮВ 1 50 км 10/10 1500 м
[]
-10.8 -12.3 89 -13 -13 1006.3 975.6
23 15.02 штиль 0 50 км 10/9 1000 м
[]
-9.2 -10.4 91 -10 -10 1005.5 975.0
00 16.02 СВ 2 50 км 10/10 1500 м
[]
-9.7 -10.9 91 -14 -14 1003.1 972.7
01 16.02 В 3 30 км снежные зёрна 10/10 1000 м
[]
-4.4 -7.0 82 -10 -10 1001.0 971.2
02 16.02 ЮВ 5 5000 м слаб. ливневой снег 10/10 600 м
[]
-3.6 -5.9 84 -10 -10 998.5 968.8
03 16.02 ЮВ 5 18 км слаб. ливневой снег 10/10 600 м
[]
-2.7 -5.4 82 -9 -9 995.1 965.6
04 16.02 ЮВ 5 19 км слаб. снег 10/10 600 м
[]
-2.4 -5.4 80 -9 -9 993.0 963.7
05 16.02 ЮВ 4 50 км в посл. час зёрна 9/9 300 м
[]
-2.1 -5.0 80 -8 -8 990.5 961.2
06 16.02 Ю 5 50 км 9/3 300 м
[]
-1.3 -3.7 84 -8 -8 986.9 957.9 -11.1 -1.2 0.1 56
07 16.02 Ю 4 45 км 10/10 300 м
[]
-0.2 -2.4 85 -6 -6 985.7 956.8
08 16.02 Ю 4 40 км 10/10 1500 м
[]
+0.2 -2.0 85 -5 -5 984.5 955.7
09 16.02 Ю 5 35 км ясно +2.8 -1.9 71 -2 -2 982.3 953.8
10 16.02 Ю 7 35 км ясно +3.8 -3.9 57 -2 -1 980.8 952.5
11 16.02 ЮЗ 8 35 км ясно +3.6 -5.0 53 -2 -2 980.0 951.7
12 16.02 ЮЗ 6 45 км 6/6 1500 м
[]
+3.3 -5.5 52 -2 -2 978.6 950.3
13 16.02 ЮЗ 9 50 км 10/10 1000 м
[]
+2.9 -6.2 51 -3 -3 977.2 948.9
14 16.02 ЮЗ 7 45 км 10/10 1000 м
[]
+2.5 -5.2 57 -3 -3 976.0 947.7
15 16.02 ЮЗ 7 50 км 10/8 1000 м
[]
+2.2 -4.0 64 -4 -4 974.4 946.1
16 16.02 ЮЗ 6 50 км 10/10 1500 м
[]
+2.2 -4.1 63 -3 -3 974.3 946.0
17 16.02 З 3 1200 м слаб. снег 10/10 300 м
[]
0.0 -1.2 92 -5 -5 974.8 946.3
18 16.02 СЗ 4 12 км слаб. снег 10/10 300 м
[]
+0.6 -0.3 94 -5 -5 976.3 947.8 -1.3 +3.8 0.5
19 16.02 СЗ 5 50 км в посл. час снег 9/6 300 м
[]
+1.1 -0.8 87 -5 -5 978.5 950.0
20 16.02 СЗ 6 800 м слаб. ливневой снег 10/10 300 м
[]
+0.6 -0.6 92 -6 -6 981.2 952.5
21 16.02 СЗ 7 2100 м слаб. снег 10/10 300 м
[]
-1.1 -2.7 89 -9 -9 984.5 955.5
22 16.02 СЗ 6 8000 м слаб. снег 10/10 300 м
[]
-2.2 -4.3 85 -9 -9 987.6 958.5
23 16.02 С 8 15 км слаб. снег 9/9 600 м
[]
-1.8 -5.0 79 -10 -10 990.9 961.7
00 17.02 СЗ 6 50 км в посл. час снег 4/4 600 м
[]
-2.6 -6.1 77 -10 -10 994.7 965.3
01 17.02 СЗ 6 50 км ясно -3.3 -7.0 76 -11 -11 996.7 967.2
02 17.02 СЗ 5 50 км 9/0
[]
-3.4 -7.0 76 -10 -10 999.3 969.7
03 17.02 СЗ 5 50 км 9/0
[]
-3.6 -7.4 75 -10 -10 1001.8 972.0
04 17.02 СЗ 4 50 км 6/0
[]
-4.3 -7.8 77 -10 -10 1003.4 973.6
05 17.02 СЗ 3 50 км 9/3 1000 м
[]
-5.2 -8.4 78 -11 -11 1005.5 975.4
06 17.02 СЗ 3 50 км 5/0
[]
-6.5 -9.6 79 -12 -12 1007.4 977.1 -6.6 +1.4 1 57
07 17.02 СЗ 2 50 км 3/3 1000 м
[]
-7.3 -10.6 77 -12 -12 1008.8 978.4
08 17.02 СЗ 4 45 км в посл. час снег 1/1 1000 м
[]
-5.2 -8.5 78 -12 -11 1010.2 980.1
09 17.02 СЗ 4 40 км в посл. час зёрна ясно -4.4 -7.9 77 -11 -10 1011.8 981.7
10 17.02 СЗ 3 50 км ясно -4.2 -8.9 70 -9 -9 1012.8 982.6
11 17.02 СЗ 3 35 км ясно -4.0 -9.7 64 -9 -8 1013.9 983.8
12 17.02 СЗ 3 35 км ясно -4.2 -10.7 60 -9 -9 1015.4 985.2
13 17.02 СЗ 2 35 км ясно -4.4 -10.7 61 -8 -8 1016.0 985.7
14 17.02 З 2 40 км ясно -7.6 -12.7 67 -12 -12 1016.6 986.0
15 17.02 З 2 30 км ясно -11.4 -14.0 81 -16 -16 1016.9 985.8
16 17.02 ЮЗ 1 19 км ясно -15.3 -17.1 86 -18 -18 1018.0 986.4
17 17.02 ЮВ 1 19 км ясно -17.8 -20.1 82 -21 -21 1018.0 986.1
18 17.02 В 1 23 км ясно -19.8 -21.9 83 -23 -23 1018.2 986.1 -20.1 -3.9
19 17.02 В 1 40 км 9/6
[]
-19.9 -21.9 84 -23 -23 1018.3 986.2
20 17.02 В 1 30 км 6/6
[]
-19.2 -21.0 86 -22 -22 1017.9 985.9
21 17.02 СВ 1 45 км 10/10
[]
-18.7 -20.9 83 -22 -22 1017.9 985.9
22 17.02 В 1 40 км 10/10
[]
-17.5 -19.5 84 -20 -20 1017.6 985.8
23 17.02 штиль 0 40 км 10/10
[]
-17.0 -19.2 83 -17 -17 1017.1 985.4
00 18.02 штиль 0 45 км 10/10
[]
-15.9 -17.9 85 -16 -16 1016.5 985.0
01 18.02 В 1 45 км 10/10
[]
-15.4 -17.5 84 -18 -18 1015.8 984.3
02 18.02 СВ 1 40 км 10/10
[]
-14.3 -16.3 85 -17 -17 1014.8 983.4
03 18.02 ЮВ 2 45 км 9/9
[]
-14.5 -16.3 86 -19 -19 1013.6 982.3
04 18.02 ЮВ 2 50 км 10/10
[]
-13.4 -15.4 85 -18 -18 1012.5 981.4
05 18.02 ЮВ 2 45 км 5/5 2000 м
[]
-12.5 -14.3 86 -17 -17 1011.2 980.2
06 18.02 Ю 4 5000 м слаб. снег 10/10 1000 м
[]
-6.9 -9.9 79 -13 -13 1009.5 979.2 -21.0 -6.9 56
07 18.02 ЮВ 3 4600 м слаб. снег 10/10 1000 м
[]
-6.7 -9.0 84 -12 -12 1008.5 978.2
08 18.02 ЮВ 3 11 км слаб. снег 10/9 600 м
[]
-6.1 -8.1 86 -12 -12 1007.1 976.9
09 18.02 Ю 4 3900 м снежные зёрна 10/10 300 м
[]
-5.2 -7.2 86 -12 -12 1005.2 975.2
10 18.02 Ю 3 3300 м слаб. снег 10/10 300 м
[]
-4.9 -6.9 86 -10 -10 1004.2 974.2
11 18.02 Ю 3 2200 м слаб. снег 10/10 300 м
[]
-5.0 -6.7 88 -11 -11 1002.7 972.8
12 18.02 Ю 4 8000 м слаб. снег 10/10 300 м
[]
-4.8 -6.9 85 -11 -11 1000.6 970.8
13 18.02 Ю 4 2500 м слаб. снег 10/10 200 м
[]
-4.9 -6.8 87 -11 -11 999.4 969.6
14 18.02 ЮВ 3 6000 м слаб. снег 10/10 300 м
[]
-5.2 -7.0 87 -11 -11 998.1 968.3
15 18.02 Ю 3 6000 м слаб. снег 10/10 200 м
[]
-5.3 -7.0 88 -11 -11 996.6 966.9
16 18.02 Ю 2 4100 м слаб. снег 10/10 200 м
[]
-5.4 -6.8 90 -10 -10 995.7 966.0
17 18.02 ЮВ 2 2000 м слаб. снег 10/10 200 м
[]
-5.4 -6.5 92 -10 -10 994.6 964.9
18 18.02 ЮВ 2 4000 м слаб. снег 10/10 100 м
[]
-5.3 -6.0 95 -10 -10 993.5 963.8 -7.0 -4.7 2
19 18.02 ЮВ 2 6000 м снежные зёрна 10/10 100 м
[]
-5.2 -6.1 93 -10 -10 992.9 963.2
20 18.02 В 1 900 м слаб. снег 10/10 200 м
[]
-5.1 -6.1 93 -8 -8 992.5 962.9
21 18.02 СВ 2 26 км снежные зёрна 9/9 200 м
[]
-5.7 -6.9 91 -10 -10 991.9 962.2
22 18.02 СВ 2 800 м слаб. снег 10/10 100 м
[]
-5.8 -7.0 91 -10 -10 991.8 962.2
23 18.02 В 3 1400 м слаб. снег 10/10 600 м
[]
-6.0 -7.2 91 -12 -12 991.2 961.6
00 19.02 СВ 2 10 км слаб. снег 10/10 300 м
[]
-5.9 -7.1 91 -10 -10 991.5 961.9
01 19.02 В 3 25 км слаб. снег 10/10 300 м
[]
-6.4 -7.9 89 -12 -12 991.8 962.1
02 19.02 В 3 22 км снежные зёрна 10/10 600 м
[]
-6.7 -8.6 86 -12 -12 992.2 962.4
03 19.02 СВ 2 50 км 10/10 600 м
[]
-7.3 -9.2 86 -12 -12 992.5 962.6
04 19.02 В 2 22 км слаб. снег 10/10 600 м
[]
-7.7 -9.9 84 -12 -12 992.7 962.8

 

Местоположение метеостанции Муонио Аламуонио (Финляндия): широта 67.99 долгота 23.68 высота над уровнем моря 236 м.

В архиве по умолчанию представлена погода в Муонио Аламуонио за последнюю неделю. Архивные данные за месяц целиком и за предыдущие месяцы, начиная с января 2011 года, Вы можете получить, выбрав интересующий диапазон дат из раскрывающегося списка и нажав кнопку "Ввод!".


*Определитесь, кто Вы:
робот инопланетянин человек

Внимание! Время в таблицах - всемирное. Для получения местного времени необходимо прибавить поправку, которая равна 1 ч.

Смотрите также архив погоды в соседних городах и на ближайших метеорологических станциях:

Погода в Муонио Лаукукеро (Финляндия) (17 км)
Погода в Муонио Саммалтунтури (Финляндия) (18 км)
Погода в Киттиля Ломполонвуома (Финляндия) (22 км)
Погода в Киттила Кенттарова (Финляндия) (23 км)
Погода в Киттила Маторова (Финляндия) (23 км)
Погода в Паркаломполо (Швеция) (46 км)
Погода в Киттила Левитунтури (Финляндия) (54 км)
Погода в Киттиля (Финляндия) (59 км)
Погода в Киттиля (Финляндия) (64 км)
Погода в Наккала (Финляндия) (68 км)

Пояснения к столбцам:

Ветер - указаны скорость ветра в м/с - средняя за 10 мин, порывы в срок и между сроками (в фигурных скобках) и направление, откуда дует ветер: С - северный, СВ - северо-восточный, В - восточный, ЮВ - юго-восточный, Ю - южный, ЮЗ - юго-западный, З - западный, СЗ - северо-западный.
Видимость - горизонтальная дальность видимости в метрах или километрах. При видимости от 1 до 10 км при отсутствии осадков обычно наблюдается дымка, при ухудшении видимости до 1 км и менее - туман. В сухую погоду видимость может ухудшаться дымом, пылью или мглою.
Явления - указаны атмосферные явления, наблюдавшиеся в срок или в последний час перед сроком; фигурными скобками обозначены явления, наблюдавшиеся между сроками (за 1-3 часа до срока); квадратными скобками обозначены град или гололедные отложения с указанием их диаметра в мм.
Облачность - указаны через наклонную черту общая и нижняя облачность в баллах и высота нижней границы облаков в метрах; квадратными скобками обозначены формы облаков: Ci - перистые, Cs - перисто-слоистые, Cc - перисто-кучевые, Ac - высококучевые, As - высокослоистые, Sc - слоисто-кучевые, Ns - слоисто-дождевые, Cu - кучевые, Cb - кучево-дождевые. Подробнее классификацию облаков см. в Атласе облаков (PDF).
T - Температура воздуха - температура, измеренная на высоте 2 м над землей.
Td - Температура точки росы - температура, при понижении до которой содержащийся в воздухе водяной пар достигнет насыщения.
f - Относительная влажность воздуха - влажноcть воздуха, измеренная на высоте 2 м над землей.
Te - Эффективная температура - температура, которую ощущает одетый по сезону человек в тени. Характеристика душности погоды. При расчете учитывается влияние влажности воздуха и скорости ветра на теплоощущения человека.
Tes - Эффективная температура на солнце - температура, которую ощущает человек, с поправкой на солнечный нагрев. Характеристика знойности погоды. Зависит от высоты солнца над горизонтом, облачности и скорости ветра. Ночью, в пасмурную погоду, а также при ветре 12 м/с и более поправка равна нулю.
P - Атмосферное давление - приведенное к уровню моря атмосферное давление.
Po - Атмосферное давление - измеренное на уровне метеостанции атмосферное давление.
Tmin - Минимальная температура - минимум температуры воздуха на высоте 2 м над землей.
Tmax - Максимальная температура - максимум температуры воздуха на высоте 2 м над землей.
R - Количество осадков - Количество выпавших осадков за период времени, мм. При наведении курсора мыши на число - период времени, за который выпало указанное количество осадков.
R24 - Количество осадков - Количество выпавших осадков за 24 часа, мм.
S - Снежный покров - Высота снежного покрова, см. При наведении курсора мыши на число - состояние снежного покрова и степень покрытия местности в баллах.